SAS931 EKCH-KLAX

Flight info

Callsign SAS931
Flight time N/A
Altitude 36000
Route GOLGA DCT RETKA DCT ISVIG/M081F360 DCT 68N010W 71N020W/M081F380 73N040W 73N060W DCT MEDPA/N0462F380 DCT 70N081W 65N094W/N0470F400 60N101W 55N105W DCT ITREK DCT LWT DCT TCH DCT DTA DCT BLD DCT OTOOL DCT BCALL DCT LEMMN DCT ANJLL ANJLL4
Aircraft A333/H-SDE3GHIJ2J3J5M1RVWXY/LB2D1

Departure

Time 2026-05-06 10:07
Airport Copenhagen Kastrup Airport (EKCH)

Arrival

Time N/A
Airport Los Angeles International Airport (KLAX)
Time Latitude Longitude Altitude Speed Heading
2026-05-06 09:59 55.62252 12.65200 30 ft 0 kts 178°
2026-05-06 10:00 55.62251 12.65200 30 ft 0 kts 179°
2026-05-06 10:00 55.62230 12.65190 30 ft 8 kts 201°
2026-05-06 10:00 55.62173 12.65132 33 ft 6 kts 214°
2026-05-06 10:01 55.62138 12.65092 35 ft 9 kts 212°
2026-05-06 10:01 55.62071 12.65016 30 ft 17 kts 214°
2026-05-06 10:01 55.61950 12.64876 30 ft 21 kts 213°
2026-05-06 10:01 55.61823 12.64734 31 ft 20 kts 212°
2026-05-06 10:02 55.61708 12.64606 32 ft 18 kts 212°
2026-05-06 10:02 55.61595 12.64486 31 ft 18 kts 210°
2026-05-06 10:02 55.61503 12.64372 31 ft 15 kts 217°
2026-05-06 10:02 55.61421 12.64272 32 ft 13 kts 213°
2026-05-06 10:03 55.61322 12.64160 31 ft 22 kts 213°
2026-05-06 10:03 55.61190 12.64007 31 ft 21 kts 215°
2026-05-06 10:03 55.61060 12.63859 29 ft 22 kts 213°
2026-05-06 10:03 55.60928 12.63709 27 ft 21 kts 214°
2026-05-06 10:04 55.60821 12.63583 27 ft 18 kts 214°
2026-05-06 10:04 55.60718 12.63464 27 ft 15 kts 213°
2026-05-06 10:04 55.60640 12.63368 27 ft 13 kts 220°
2026-05-06 10:04 55.60575 12.63267 28 ft 11 kts 221°
2026-05-06 10:05 55.60516 12.63175 29 ft 10 kts 221°
2026-05-06 10:05 55.60455 12.63116 29 ft 9 kts 185°
2026-05-06 10:05 55.60401 12.63169 29 ft 9 kts 129°
2026-05-06 10:05 55.60360 12.63259 29 ft 9 kts 128°
2026-05-06 10:06 55.60343 12.63342 29 ft 5 kts 74°
2026-05-06 10:06 55.60360 12.63378 29 ft 0 kts 41°
2026-05-06 10:06 55.60364 12.63384 29 ft 4 kts 39°
2026-05-06 10:06 55.60496 12.63589 26 ft 55 kts 41°
2026-05-06 10:07 55.60944 12.64282 29 ft 114 kts 41°
2026-05-06 10:07 55.61685 12.65417 35 ft 162 kts 43°
2026-05-06 10:07 55.62513 12.66770 615 ft 157 kts 45°
2026-05-06 10:07 55.63280 12.68076 1277 ft 154 kts 41°
2026-05-06 10:08 55.64111 12.69244 1823 ft 152 kts 43°
2026-05-06 10:08 55.64933 12.70501 2006 ft 160 kts 44°
2026-05-06 10:08 55.65963 12.71415 2130 ft 176 kts
2026-05-06 10:08 55.67214 12.71125 2351 ft 186 kts 354°
2026-05-06 10:09 55.68514 12.70821 2534 ft 193 kts 358°
2026-05-06 10:09 55.69915 12.70568 2629 ft 211 kts 359°
2026-05-06 10:09 55.71439 12.70318 2784 ft 227 kts 359°
2026-05-06 10:09 55.73055 12.69756 2969 ft 246 kts 339°
2026-05-06 10:10 55.74567 12.68099 3281 ft 264 kts 328°
2026-05-06 10:10 55.76087 12.66188 3888 ft 269 kts 327°
2026-05-06 10:10 55.77576 12.64230 4602 ft 269 kts 326°
2026-05-06 10:10 55.79088 12.62217 5309 ft 270 kts 326°
2026-05-06 10:11 55.80586 12.60212 5982 ft 271 kts 325°
2026-05-06 10:11 55.82096 12.58186 6642 ft 272 kts 325°
2026-05-06 10:11 55.83624 12.56137 7289 ft 274 kts 324°
2026-05-06 10:11 55.85144 12.54091 7917 ft 276 kts 324°
2026-05-06 10:12 55.86688 12.52016 8543 ft 278 kts 323°
2026-05-06 10:12 55.88211 12.49965 9145 ft 279 kts 323°
2026-05-06 10:12 55.89759 12.47874 9778 ft 280 kts 323°
2026-05-06 10:12 55.91338 12.45741 10296 ft 286 kts 322°
2026-05-06 10:13 55.92969 12.43535 10594 ft 301 kts 322°
2026-05-06 10:13 55.94675 12.41225 10831 ft 317 kts 322°
2026-05-06 10:13 55.96491 12.38766 11061 ft 332 kts 322°
2026-05-06 10:13 55.98369 12.36219 11294 ft 348 kts 322°
2026-05-06 10:14 56.00349 12.33530 11645 ft 359 kts 321°
2026-05-06 10:14 56.02340 12.30824 12212 ft 363 kts 321°
2026-05-06 10:14 56.04374 12.28054 12833 ft 365 kts 321°
2026-05-06 10:14 56.06388 12.25311 13443 ft 367 kts 321°
2026-05-06 10:15 56.08430 12.22524 14031 ft 370 kts 321°
2026-05-06 10:15 56.10498 12.19698 14616 ft 372 kts 320°
2026-05-06 10:15 56.12550 12.16891 15162 ft 374 kts 320°
2026-05-06 10:15 56.14646 12.14016 15673 ft 377 kts 320°
2026-05-06 10:16 56.16735 12.11148 16174 ft 380 kts 320°
2026-05-06 10:16 56.18828 12.08271 16642 ft 383 kts 320°
2026-05-06 10:16 56.20971 12.05320 17128 ft 385 kts 319°
2026-05-06 10:16 56.23109 12.02372 17618 ft 388 kts 319°
2026-05-06 10:17 56.25267 11.99392 18069 ft 390 kts 319°
2026-05-06 10:17 56.27426 11.96404 18522 ft 393 kts 319°
2026-05-06 10:17 56.29614 11.93376 18954 ft 396 kts 319°
2026-05-06 10:17 56.31814 11.90323 19044 ft 402 kts 319°
2026-05-06 10:18 56.34014 11.87267 18940 ft 400 kts 319°
2026-05-06 10:18 56.36239 11.84172 18905 ft 396 kts 319°
2026-05-06 10:18 56.38393 11.81171 18911 ft 396 kts 319°
2026-05-06 10:18 56.40585 11.78113 18910 ft 396 kts 318°
2026-05-06 10:19 56.42767 11.75063 18920 ft 397 kts 319°
2026-05-06 10:19 56.44963 11.71990 18929 ft 397 kts 318°
2026-05-06 10:19 56.47128 11.68955 18926 ft 397 kts 319°
2026-05-06 10:19 56.49338 11.65853 18941 ft 397 kts 318°
2026-05-06 10:20 56.51513 11.62797 18934 ft 397 kts 318°
2026-05-06 10:20 56.53704 11.59711 18937 ft 396 kts 319°
2026-05-06 10:20 56.55857 11.56675 18959 ft 396 kts 318°
2026-05-06 10:20 56.58056 11.53570 18961 ft 396 kts 318°
2026-05-06 10:21 56.60212 11.50522 18950 ft 395 kts 318°
2026-05-06 10:21 56.62389 11.47438 18957 ft 396 kts 318°
2026-05-06 10:21 56.64576 11.44338 18960 ft 396 kts 318°
2026-05-06 10:21 56.66768 11.41221 18956 ft 395 kts 319°
2026-05-06 10:22 56.68938 11.38135 18965 ft 395 kts 318°
2026-05-06 10:22 56.71107 11.35047 18959 ft 395 kts 318°
2026-05-06 10:22 56.73266 11.31965 18961 ft 394 kts 317°
2026-05-06 10:22 56.75455 11.28836 18980 ft 394 kts 317°
2026-05-06 10:23 56.77626 11.25727 18979 ft 395 kts 317°
2026-05-06 10:23 56.79800 11.22612 18977 ft 395 kts 317°
2026-05-06 10:23 56.81952 11.19523 18972 ft 394 kts 317°
2026-05-06 10:23 56.84112 11.16415 18975 ft 394 kts 317°
2026-05-06 10:24 56.86307 11.13255 18979 ft 394 kts 317°
2026-05-06 10:24 56.88480 11.10120 18975 ft 395 kts 317°
2026-05-06 10:24 56.90626 11.07021 18982 ft 394 kts 317°
2026-05-06 10:24 56.92801 11.03872 18988 ft 394 kts 317°
2026-05-06 10:25 56.94949 11.00763 18981 ft 394 kts 317°
2026-05-06 10:25 56.97118 10.97615 18973 ft 393 kts 317°
2026-05-06 10:25 56.99253 10.94515 18975 ft 393 kts 317°
2026-05-06 10:25 57.01414 10.91366 19058 ft 398 kts 317°
2026-05-06 10:26 57.03618 10.88157 19505 ft 401 kts 317°
2026-05-06 10:26 57.05782 10.84998 20047 ft 400 kts 317°
2026-05-06 10:26 57.07994 10.81766 20533 ft 401 kts 316°
2026-05-06 10:26 57.10165 10.78584 20959 ft 403 kts 316°
2026-05-06 10:27 57.12356 10.75369 21352 ft 405 kts 316°
2026-05-06 10:27 57.14602 10.72070 21754 ft 407 kts 316°
2026-05-06 10:27 57.16832 10.68788 22131 ft 410 kts 316°
2026-05-06 10:27 57.19073 10.65487 22498 ft 412 kts 316°
2026-05-06 10:28 57.21318 10.62173 22863 ft 414 kts 316°
2026-05-06 10:28 57.23599 10.58798 23210 ft 416 kts 315°
2026-05-06 10:28 57.25867 10.55441 23536 ft 419 kts 315°
2026-05-06 10:28 57.28165 10.52031 23890 ft 421 kts 315°
2026-05-06 10:29 57.30456 10.48627 24254 ft 423 kts 315°
2026-05-06 10:29 57.32790 10.45153 24587 ft 425 kts 315°
2026-05-06 10:29 57.35132 10.41661 24918 ft 428 kts 315°
2026-05-06 10:29 57.37509 10.38111 25229 ft 431 kts 315°
2026-05-06 10:30 57.39880 10.34566 25526 ft 433 kts 314°
2026-05-06 10:30 57.42219 10.31061 25893 ft 435 kts 314°
2026-05-06 10:30 57.44617 10.27460 26224 ft 437 kts 314°
2026-05-06 10:30 57.47010 10.23863 26560 ft 439 kts 314°
2026-05-06 10:31 57.49410 10.20248 26894 ft 441 kts 314°
2026-05-06 10:31 57.51837 10.16587 27210 ft 443 kts 314°
2026-05-06 10:31 57.54243 10.12948 27510 ft 446 kts 314°
2026-05-06 10:31 57.56644 10.09314 27833 ft 448 kts 314°
2026-05-06 10:32 57.59103 10.05584 28128 ft 450 kts 314°
2026-05-06 10:32 57.61552 10.01862 28427 ft 451 kts 314°
2026-05-06 10:32 57.63976 9.98171 28680 ft 454 kts 314°
2026-05-06 10:32 57.66440 9.94414 28945 ft 456 kts 313°
2026-05-06 10:33 57.68915 9.90632 29187 ft 458 kts 313°
2026-05-06 10:33 57.71388 9.86846 29456 ft 459 kts 314°
2026-05-06 10:33 57.73892 9.83009 29751 ft 460 kts 313°
2026-05-06 10:33 57.76371 9.79199 30118 ft 459 kts 313°
2026-05-06 10:34 57.78832 9.75413 30447 ft 458 kts 313°
2026-05-06 10:34 57.81302 9.71607 30791 ft 457 kts 313°
2026-05-06 10:34 57.83764 9.67802 31096 ft 457 kts 313°
2026-05-06 10:34 57.86217 9.64003 31372 ft 456 kts 313°
2026-05-06 10:35 57.88688 9.60173 31680 ft 456 kts 313°
2026-05-06 10:35 57.91124 9.56392 31998 ft 454 kts 313°
2026-05-06 10:35 57.93587 9.52555 32274 ft 453 kts 313°
2026-05-06 10:35 57.96017 9.48768 32527 ft 453 kts 313°
2026-05-06 10:36 57.98431 9.44999 32808 ft 452 kts 313°
2026-05-06 10:36 58.00877 9.41244 33051 ft 452 kts 314°
2026-05-06 10:36 58.03318 9.37536 33289 ft 452 kts 314°
2026-05-06 10:36 58.05796 9.33760 33572 ft 450 kts 313°
2026-05-06 10:37 58.08237 9.30035 33840 ft 448 kts 313°
2026-05-06 10:37 58.10664 9.26317 34069 ft 448 kts 313°
2026-05-06 10:37 58.13084 9.22610 34261 ft 447 kts 313°
2026-05-06 10:37 58.15503 9.18896 34468 ft 445 kts 313°
2026-05-06 10:38 58.17914 9.15186 34660 ft 445 kts 313°
2026-05-06 10:38 58.20322 9.11475 34802 ft 444 kts 313°
2026-05-06 10:38 58.22745 9.07733 34951 ft 444 kts 313°
2026-05-06 10:38 58.25123 9.04057 35068 ft 443 kts 313°
2026-05-06 10:39 58.27543 9.00307 35193 ft 443 kts 313°
2026-05-06 10:39 58.29950 8.96573 35300 ft 443 kts 313°
2026-05-06 10:39 58.32367 8.92814 35441 ft 442 kts 313°
2026-05-06 10:39 58.34763 8.89083 35551 ft 442 kts 313°
2026-05-06 10:40 58.37147 8.85361 35674 ft 441 kts 313°
2026-05-06 10:40 58.39562 8.81583 35784 ft 440 kts 313°
2026-05-06 10:40 58.41940 8.77861 35921 ft 440 kts 313°
2026-05-06 10:40 58.44328 8.74109 35991 ft 441 kts 314°
2026-05-06 10:41 58.49152 8.66521 35953 ft 446 kts 314°
2026-05-06 10:41 58.53985 8.58888 35982 ft 451 kts 314°
2026-05-06 10:42 58.58820 8.51224 35951 ft 454 kts 314°
2026-05-06 10:42 58.63749 8.43382 35959 ft 457 kts 314°
2026-05-06 10:43 58.68678 8.35511 35964 ft 458 kts 314°
2026-05-06 10:44 58.76059 8.23667 35970 ft 460 kts 313°
2026-05-06 10:44 58.81034 8.15647 35973 ft 461 kts 313°
2026-05-06 10:45 58.85989 8.07628 35926 ft 457 kts 313°
2026-05-06 10:45 58.90886 7.99667 35920 ft 456 kts 313°
2026-05-06 10:46 58.95820 7.91620 35931 ft 458 kts 313°
2026-05-06 10:46 59.00740 7.83564 35923 ft 457 kts 313°
2026-05-06 10:47 59.05619 7.75542 35932 ft 456 kts 313°
2026-05-06 10:47 59.10542 7.67423 35923 ft 456 kts 313°
2026-05-06 10:48 59.15381 7.59405 35884 ft 457 kts 313°
2026-05-06 10:48 59.20238 7.51328 35905 ft 455 kts 313°
2026-05-06 10:49 59.25111 7.43193 35901 ft 455 kts 313°
2026-05-06 10:49 59.29982 7.35024 35890 ft 455 kts 313°
2026-05-06 10:50 59.34757 7.26994 35886 ft 455 kts 312°
2026-05-06 10:50 59.39561 7.18878 35881 ft 455 kts 313°
2026-05-06 10:51 59.44359 7.10742 35874 ft 452 kts 313°
2026-05-06 10:51 59.49177 7.02542 35884 ft 453 kts 313°
2026-05-06 10:52 59.53994 6.94312 35893 ft 454 kts 313°
2026-05-06 10:52 59.58780 6.86099 35897 ft 453 kts 313°
2026-05-06 10:53 59.63565 6.77857 35926 ft 453 kts 313°
2026-05-06 10:53 59.68371 6.69543 35959 ft 454 kts 313°
2026-05-06 10:54 59.73166 6.61217 35985 ft 456 kts 313°
2026-05-06 10:54 59.77958 6.52870 35974 ft 455 kts 313°
2026-05-06 10:55 59.82769 6.44448 35953 ft 455 kts 313°
2026-05-06 10:55 59.87564 6.36028 35910 ft 455 kts 313°
2026-05-06 10:56 59.92241 6.27774 35866 ft 453 kts 312°
2026-05-06 10:56 59.97016 6.19319 35856 ft 453 kts 313°
2026-05-06 10:57 60.01760 6.10886 35927 ft 453 kts 312°
2026-05-06 10:57 60.06515 6.02393 36019 ft 454 kts 313°
2026-05-06 10:58 60.11261 5.93886 36053 ft 455 kts 313°
2026-05-06 10:58 60.15988 5.85378 36049 ft 457 kts 313°
2026-05-06 10:59 60.20771 5.76738 36031 ft 456 kts 313°
2026-05-06 10:59 60.25531 5.68099 36053 ft 456 kts 313°
2026-05-06 11:00 60.30267 5.59471 36031 ft 456 kts 313°
2026-05-06 11:00 60.35019 5.50783 36024 ft 456 kts 313°
2026-05-06 11:01 60.39755 5.42082 36053 ft 456 kts 313°
2026-05-06 11:01 60.44420 5.33478 36045 ft 458 kts 312°
2026-05-06 11:02 60.49121 5.24770 36059 ft 456 kts 313°
2026-05-06 11:02 60.53847 5.15986 36048 ft 456 kts 313°
2026-05-06 11:03 60.58571 5.07162 36044 ft 456 kts 313°
2026-05-06 11:03 60.63262 4.98371 36049 ft 457 kts 313°
2026-05-06 11:04 60.67976 4.89495 36042 ft 457 kts 313°
2026-05-06 11:04 60.72665 4.80629 36041 ft 457 kts 313°
2026-05-06 11:05 60.77338 4.71757 36043 ft 457 kts 313°
2026-05-06 11:05 60.81992 4.62881 36038 ft 457 kts 313°
2026-05-06 11:06 60.86685 4.53899 36035 ft 458 kts 313°
2026-05-06 11:06 60.91323 4.44981 36026 ft 458 kts 313°
2026-05-06 11:07 60.95978 4.35994 36024 ft 458 kts 313°
2026-05-06 11:07 61.00522 4.27186 36030 ft 459 kts 312°
2026-05-06 11:08 61.05151 4.18175 36037 ft 459 kts 312°
2026-05-06 11:08 61.09802 4.09081 36041 ft 459 kts 312°
2026-05-06 11:09 61.14437 3.99979 36037 ft 459 kts 313°
2026-05-06 11:09 61.19082 3.90823 36030 ft 460 kts 313°
2026-05-06 11:10 61.23694 3.81691 36029 ft 461 kts 313°
2026-05-06 11:10 61.28337 3.72459 36028 ft 460 kts 313°
2026-05-06 11:11 61.32952 3.63239 36031 ft 461 kts 313°
2026-05-06 11:11 61.37574 3.53968 36024 ft 462 kts 313°
2026-05-06 11:12 61.42215 3.44620 36022 ft 462 kts 313°
2026-05-06 11:12 61.46842 3.35256 36019 ft 462 kts 313°
2026-05-06 11:13 61.51466 3.25860 36017 ft 462 kts 312°
2026-05-06 11:13 61.56059 3.16486 36010 ft 461 kts 313°
2026-05-06 11:14 61.60633 3.07109 36015 ft 462 kts 313°
2026-05-06 11:14 61.65246 2.97612 36001 ft 462 kts 313°
2026-05-06 11:15 61.69830 2.88132 36008 ft 462 kts 313°
2026-05-06 11:15 61.74414 2.78607 35995 ft 463 kts 313°
2026-05-06 11:16 61.79013 2.69011 35985 ft 463 kts 313°
2026-05-06 11:16 61.83577 2.59448 35989 ft 463 kts 313°
2026-05-06 11:17 61.88154 2.49812 35989 ft 463 kts 313°
2026-05-06 11:17 61.92703 2.40194 35984 ft 463 kts 313°
2026-05-06 11:18 61.97243 2.30549 35988 ft 463 kts 312°
2026-05-06 11:18 62.01797 2.20837 35984 ft 463 kts 312°
2026-05-06 11:19 62.06363 2.11050 35988 ft 463 kts 312°
2026-05-06 11:19 62.10875 2.01337 35981 ft 462 kts 312°
2026-05-06 11:20 62.15413 1.91523 35980 ft 463 kts 312°
2026-05-06 11:20 62.19946 1.81678 35982 ft 464 kts 312°
2026-05-06 11:21 62.24486 1.71769 35978 ft 464 kts 313°
2026-05-06 11:21 62.28994 1.61886 35974 ft 464 kts 313°
2026-05-06 11:22 62.33482 1.52004 35975 ft 464 kts 313°
2026-05-06 11:22 62.38009 1.41990 35974 ft 464 kts 313°
2026-05-06 11:23 62.42502 1.32004 35974 ft 464 kts 312°
2026-05-06 11:23 62.47003 1.21955 35974 ft 465 kts 312°
2026-05-06 11:24 62.51470 1.11934 35968 ft 464 kts 312°
2026-05-06 11:24 62.55964 1.01808 35972 ft 464 kts 312°
2026-05-06 11:25 62.60426 0.91707 35975 ft 464 kts 312°
2026-05-06 11:25 62.64894 0.81543 35978 ft 464 kts 312°
2026-05-06 11:26 62.69331 0.71405 35977 ft 465 kts 312°
2026-05-06 11:26 62.73799 0.61149 35974 ft 465 kts 312°
2026-05-06 11:27 62.78224 0.50942 35972 ft 465 kts 312°
2026-05-06 11:27 62.82689 0.40594 35971 ft 465 kts 312°
2026-05-06 11:28 62.87106 0.30311 35971 ft 465 kts 311°
2026-05-06 11:28 62.91541 0.19933 35975 ft 465 kts 311°
2026-05-06 11:29 62.95954 0.09562 35992 ft 465 kts 311°
2026-05-06 11:29 63.00359 -0.00825 35981 ft 465 kts 313°
2026-05-06 11:29 63.02836 -0.05532 35976 ft 467 kts 324°
2026-05-06 11:30 63.05601 -0.09142 36001 ft 468 kts 327°
2026-05-06 11:30 63.11029 -0.17248 35984 ft 469 kts 323°
2026-05-06 11:31 63.16360 -0.25591 35988 ft 470 kts 323°
2026-05-06 11:31 63.21674 -0.33983 35981 ft 469 kts 323°
2026-05-06 11:32 63.26978 -0.42398 35984 ft 468 kts 323°
2026-05-06 11:32 63.32259 -0.50815 35983 ft 468 kts 323°
2026-05-06 11:33 63.37565 -0.59310 35982 ft 469 kts 323°
2026-05-06 11:33 63.42854 -0.67820 35982 ft 469 kts 322°
2026-05-06 11:34 63.48137 -0.76359 35980 ft 469 kts 322°
2026-05-06 11:34 63.53438 -0.84966 35981 ft 469 kts 323°
2026-05-06 11:35 63.58684 -0.93522 35982 ft 469 kts 322°
2026-05-06 11:35 63.63974 -1.02193 35985 ft 470 kts 322°
2026-05-06 11:36 63.69235 -1.10857 35979 ft 469 kts 322°
2026-05-06 11:36 63.74530 -1.19617 35990 ft 469 kts 322°
2026-05-06 11:37 63.79637 -1.28107 35990 ft 469 kts 323°
2026-05-06 11:37 63.85140 -1.36050 35984 ft 470 kts 337°
2026-05-06 11:38 63.91148 -1.42044 35995 ft 469 kts 325°
2026-05-06 11:38 63.96277 -1.51253 36002 ft 470 kts 322°
2026-05-06 11:39 64.01537 -1.60235 35993 ft 471 kts 323°
2026-05-06 11:39 64.06801 -1.69200 35998 ft 472 kts 322°
2026-05-06 11:40 64.12058 -1.78185 36003 ft 469 kts 322°
2026-05-06 11:40 64.17317 -1.87218 36002 ft 468 kts 322°
2026-05-06 11:41 64.22525 -1.96205 36011 ft 469 kts 322°
2026-05-06 11:41 64.27760 -2.05282 36007 ft 470 kts 322°
2026-05-06 11:42 64.32991 -2.14399 36016 ft 470 kts 322°
2026-05-06 11:42 64.38236 -2.23583 36013 ft 470 kts 322°
2026-05-06 11:43 64.43430 -2.32727 36023 ft 469 kts 322°
2026-05-06 11:43 64.48651 -2.41958 36036 ft 469 kts 322°
2026-05-06 11:44 64.56460 -2.55852 36029 ft 469 kts 322°
2026-05-06 11:44 64.61628 -2.65103 36040 ft 469 kts 322°
2026-05-06 11:45 64.66835 -2.74472 36038 ft 471 kts 322°
2026-05-06 11:45 64.72032 -2.83870 36043 ft 470 kts 322°
2026-05-06 11:46 64.77202 -2.93264 36041 ft 469 kts 322°
2026-05-06 11:46 64.82387 -3.02735 36044 ft 469 kts 322°
2026-05-06 11:47 64.87542 -3.12197 36045 ft 469 kts 322°
2026-05-06 11:47 64.92707 -3.21723 36046 ft 470 kts 322°
2026-05-06 11:48 64.97881 -3.31315 36054 ft 471 kts 322°
2026-05-06 11:48 65.03035 -3.40920 36053 ft 471 kts 322°
2026-05-06 11:49 65.08204 -3.50602 36055 ft 471 kts 322°
2026-05-06 11:49 65.13327 -3.60246 36059 ft 470 kts 322°
2026-05-06 11:50 65.18481 -3.69996 36063 ft 469 kts 321°
2026-05-06 11:50 65.23588 -3.79709 36064 ft 470 kts 321°
2026-05-06 11:51 65.28728 -3.89533 36066 ft 470 kts 321°
2026-05-06 11:51 65.33823 -3.99325 36067 ft 470 kts 321°
2026-05-06 11:52 65.38957 -4.09236 36069 ft 470 kts 321°
2026-05-06 11:52 65.44034 -4.19092 36070 ft 469 kts 321°
2026-05-06 11:53 65.49144 -4.29063 36075 ft 469 kts 321°
2026-05-06 11:53 65.54198 -4.38976 36073 ft 468 kts 321°
2026-05-06 11:54 65.59269 -4.48974 36076 ft 469 kts 322°
2026-05-06 11:54 65.64352 -4.59046 36078 ft 470 kts 321°
2026-05-06 11:55 65.69418 -4.69138 36082 ft 471 kts 321°
2026-05-06 11:55 65.74474 -4.79264 36081 ft 470 kts 321°
2026-05-06 11:56 65.79533 -4.89448 36084 ft 470 kts 321°
2026-05-06 11:56 65.84573 -4.99647 36084 ft 469 kts 321°
2026-05-06 11:57 65.89623 -5.09924 36089 ft 468 kts 321°
2026-05-06 11:57 65.94637 -5.20179 36091 ft 469 kts 321°
2026-05-06 11:58 65.99661 -5.30508 36089 ft 471 kts 321°
2026-05-06 11:58 66.04725 -5.40978 36096 ft 470 kts 321°
2026-05-06 11:59 66.09727 -5.51374 36097 ft 470 kts 321°
2026-05-06 11:59 66.14720 -5.61804 36100 ft 469 kts 321°
2026-05-06 12:00 66.19710 -5.72289 36105 ft 468 kts 320°
2026-05-06 12:00 66.24715 -5.82857 36111 ft 469 kts 320°
2026-05-06 12:01 66.29668 -5.93376 36112 ft 469 kts 320°
2026-05-06 12:01 66.34673 -6.04062 36115 ft 470 kts 320°
2026-05-06 12:02 66.39627 -6.14694 36119 ft 470 kts 320°
2026-05-06 12:02 66.44617 -6.25464 36131 ft 470 kts 320°
2026-05-06 12:03 66.49569 -6.36208 36148 ft 470 kts 320°
2026-05-06 12:03 66.54515 -6.47002 36152 ft 470 kts 320°
2026-05-06 12:04 66.59463 -6.57856 36153 ft 469 kts 320°
2026-05-06 12:04 66.64390 -6.68727 36156 ft 469 kts 319°
2026-05-06 12:05 66.69314 -6.79650 36160 ft 470 kts 319°
2026-05-06 12:05 66.74237 -6.90632 36164 ft 470 kts 319°
2026-05-06 12:06 66.79127 -7.01600 36165 ft 470 kts 319°
2026-05-06 12:06 66.84029 -7.12660 36158 ft 469 kts 320°
2026-05-06 12:07 66.88940 -7.23796 36154 ft 469 kts 320°
2026-05-06 12:07 66.93788 -7.34850 36163 ft 469 kts 320°
2026-05-06 12:08 66.98682 -7.46078 36165 ft 469 kts 320°
2026-05-06 12:08 67.03539 -7.57278 36165 ft 469 kts 320°
2026-05-06 12:09 67.08399 -7.68555 36172 ft 468 kts 319°
2026-05-06 12:09 67.13232 -7.79829 36180 ft 467 kts 319°
2026-05-06 12:10 67.18044 -7.91114 36186 ft 466 kts 319°
2026-05-06 12:10 67.22861 -8.02478 36190 ft 468 kts 319°
2026-05-06 12:11 67.27676 -8.13905 36193 ft 469 kts 319°
2026-05-06 12:11 67.32462 -8.25325 36196 ft 468 kts 319°
2026-05-06 12:12 67.37251 -8.36815 36198 ft 467 kts 319°
2026-05-06 12:12 67.42055 -8.48413 36202 ft 466 kts 319°
2026-05-06 12:13 67.46808 -8.59950 36201 ft 466 kts 319°
2026-05-06 12:13 67.51560 -8.71554 36206 ft 466 kts 318°
2026-05-06 12:14 67.56308 -8.83212 36207 ft 467 kts 318°
2026-05-06 12:14 67.61063 -8.94957 36210 ft 466 kts 318°
2026-05-06 12:15 67.65782 -9.06679 36214 ft 465 kts 318°
2026-05-06 12:15 67.70465 -9.18381 36216 ft 465 kts 318°
2026-05-06 12:16 67.75179 -9.30230 36216 ft 465 kts 318°
2026-05-06 12:16 67.79860 -9.42061 36219 ft 465 kts 318°
2026-05-06 12:17 67.84550 -9.53987 36218 ft 466 kts 318°
2026-05-06 12:17 67.89242 -9.65988 36225 ft 465 kts 317°
2026-05-06 12:18 67.93909 -9.77997 36225 ft 465 kts 317°
2026-05-06 12:18 67.98559 -9.90030 36228 ft 465 kts 317°
2026-05-06 12:19 68.03300 -10.01845 36228 ft 465 kts 319°
2026-05-06 12:19 68.07831 -10.14436 36240 ft 467 kts 316°
2026-05-06 12:20 68.12405 -10.26782 36242 ft 466 kts 316°
2026-05-06 12:20 68.17016 -10.39224 36249 ft 466 kts 317°
2026-05-06 12:21 68.21571 -10.51582 36250 ft 466 kts 317°
2026-05-06 12:21 68.26162 -10.64113 36255 ft 466 kts 317°
2026-05-06 12:22 68.30725 -10.76644 36257 ft 466 kts 316°
2026-05-06 12:22 68.35292 -10.89259 36259 ft 467 kts 316°
2026-05-06 12:23 68.39822 -11.01854 36263 ft 467 kts 316°
2026-05-06 12:23 68.44376 -11.14590 36263 ft 467 kts 316°
2026-05-06 12:24 68.48907 -11.27336 36267 ft 466 kts 316°
2026-05-06 12:24 68.53433 -11.40152 36267 ft 466 kts 316°
2026-05-06 12:25 68.57937 -11.52982 36268 ft 466 kts 316°
2026-05-06 12:25 68.62427 -11.65852 36270 ft 466 kts 315°
2026-05-06 12:26 68.66905 -11.78770 36270 ft 466 kts 315°
2026-05-06 12:26 68.71384 -11.91768 36272 ft 465 kts 315°
2026-05-06 12:27 68.75847 -12.04802 36271 ft 465 kts 315°
2026-05-06 12:27 68.80290 -12.17859 36275 ft 466 kts 315°
2026-05-06 12:28 68.84753 -12.31057 36276 ft 466 kts 315°
2026-05-06 12:28 68.89172 -12.44210 36285 ft 465 kts 315°
2026-05-06 12:29 68.93600 -12.57472 36291 ft 464 kts 315°
2026-05-06 12:29 68.97979 -12.70666 36298 ft 464 kts 314°
2026-05-06 12:30 69.02402 -12.84082 36303 ft 464 kts 314°
2026-05-06 12:30 69.06771 -12.97421 36303 ft 465 kts 315°
2026-05-06 12:31 69.11150 -13.10868 36322 ft 465 kts 315°
2026-05-06 12:31 69.15508 -13.24343 36325 ft 464 kts 314°
2026-05-06 12:32 69.19836 -13.37811 36326 ft 463 kts 314°
2026-05-06 12:32 69.24183 -13.51423 36331 ft 463 kts 314°
2026-05-06 12:33 69.28502 -13.65037 36334 ft 463 kts 314°
2026-05-06 12:33 69.32808 -13.78699 36339 ft 464 kts 314°
2026-05-06 12:34 69.37111 -13.92439 36331 ft 463 kts 314°
2026-05-06 12:34 69.41376 -14.06145 36334 ft 463 kts 314°
2026-05-06 12:35 69.45651 -14.19973 36337 ft 463 kts 314°
2026-05-06 12:35 69.49934 -14.33920 36345 ft 463 kts 314°
2026-05-06 12:36 69.54164 -14.47785 36345 ft 463 kts 314°
2026-05-06 12:36 69.58427 -14.61852 36349 ft 464 kts 314°
2026-05-06 12:37 69.62660 -14.75915 36351 ft 464 kts 313°
2026-05-06 12:37 69.66864 -14.89968 36347 ft 464 kts 313°
2026-05-06 12:38 69.71091 -15.04197 36349 ft 463 kts 313°
2026-05-06 12:38 69.75281 -15.18392 36350 ft 464 kts 313°
2026-05-06 12:39 69.79469 -15.32681 36367 ft 463 kts 313°
2026-05-06 12:39 69.83656 -15.47059 36374 ft 464 kts 313°
2026-05-06 12:40 69.87817 -15.61445 36382 ft 463 kts 313°
2026-05-06 12:40 69.91964 -15.75886 36383 ft 464 kts 312°
2026-05-06 12:41 69.96108 -15.90410 36388 ft 464 kts 312°
2026-05-06 12:41 70.00235 -16.04975 36392 ft 464 kts 312°
2026-05-06 12:42 70.04343 -16.19573 36392 ft 465 kts 312°
2026-05-06 12:42 70.08451 -16.34266 36393 ft 465 kts 312°
2026-05-06 12:43 70.12563 -16.49081 36400 ft 465 kts 312°
2026-05-06 12:43 70.16663 -16.63958 36400 ft 465 kts 312°
2026-05-06 12:44 70.20736 -16.78835 36402 ft 465 kts 311°
2026-05-06 12:44 70.24822 -16.93867 36404 ft 465 kts 311°
2026-05-06 12:45 70.28861 -17.08831 36411 ft 465 kts 311°
2026-05-06 12:46 70.34919 -17.31474 36413 ft 464 kts 311°
2026-05-06 12:46 70.38912 -17.46532 36424 ft 463 kts 311°
2026-05-06 12:47 70.42911 -17.61714 36432 ft 463 kts 311°
2026-05-06 12:47 70.46884 -17.76912 36435 ft 463 kts 310°
2026-05-06 12:48 70.50884 -17.92318 36441 ft 463 kts 310°
2026-05-06 12:48 70.54829 -18.07623 36440 ft 464 kts 310°
2026-05-06 12:49 70.58788 -18.23095 36441 ft 464 kts 310°
2026-05-06 12:49 70.62701 -18.38494 36442 ft 463 kts 310°
2026-05-06 12:50 70.66624 -18.54047 36443 ft 463 kts 310°
2026-05-06 12:50 70.70512 -18.69577 36445 ft 463 kts 309°
2026-05-06 12:51 70.74396 -18.85199 36449 ft 463 kts 309°
2026-05-06 12:51 70.78291 -19.00983 36449 ft 463 kts 309°
2026-05-06 12:52 70.82138 -19.16687 36455 ft 462 kts 309°
2026-05-06 12:52 70.85977 -19.32475 36446 ft 462 kts 309°
2026-05-06 12:53 70.89812 -19.48360 36443 ft 462 kts 309°
2026-05-06 12:53 70.93623 -19.64265 36451 ft 462 kts 309°
2026-05-06 12:54 70.97405 -19.80170 36460 ft 462 kts 308°
2026-05-06 12:54 71.01161 -19.96256 36473 ft 462 kts 308°
2026-05-06 12:55 71.04511 -20.13255 36476 ft 467 kts 294°
2026-05-06 12:55 71.07183 -20.31569 36484 ft 465 kts 300°
2026-05-06 12:56 71.10089 -20.49413 36476 ft 464 kts 300°
2026-05-06 12:56 71.13001 -20.67300 36489 ft 464 kts 299°
2026-05-06 12:57 71.15918 -20.85362 36482 ft 464 kts 299°
2026-05-06 12:57 71.18788 -21.03283 36481 ft 465 kts 299°
2026-05-06 12:58 71.21661 -21.21394 36482 ft 464 kts 299°
2026-05-06 12:58 71.24513 -21.39524 36479 ft 464 kts 299°
2026-05-06 12:59 71.27355 -21.57764 36480 ft 464 kts 299°
2026-05-06 12:59 71.30159 -21.75924 36483 ft 465 kts 298°
2026-05-06 13:00 71.32976 -21.94338 36456 ft 465 kts 298°
2026-05-06 13:00 71.35754 -22.12666 36437 ft 465 kts 298°
2026-05-06 13:01 71.38515 -22.31049 36437 ft 465 kts 298°
2026-05-06 13:01 71.41276 -22.49606 36462 ft 465 kts 298°
2026-05-06 13:02 71.44012 -22.68178 36425 ft 466 kts 297°
2026-05-06 13:02 71.46738 -22.86849 36348 ft 464 kts 297°
2026-05-06 13:03 71.49421 -23.05403 36383 ft 463 kts 297°
2026-05-06 13:03 71.52103 -23.24139 36408 ft 465 kts 297°
2026-05-06 13:04 71.54757 -23.42846 36399 ft 465 kts 297°
2026-05-06 13:04 71.57404 -23.61697 36400 ft 464 kts 297°
2026-05-06 13:05 71.60027 -23.80552 36395 ft 464 kts 296°
2026-05-06 13:05 71.62637 -23.99506 36353 ft 465 kts 296°
2026-05-06 13:06 71.65219 -24.18443 36325 ft 464 kts 296°
2026-05-06 13:06 71.67788 -24.37474 36311 ft 464 kts 296°
2026-05-06 13:07 71.70333 -24.56521 36381 ft 463 kts 296°
2026-05-06 13:07 71.72855 -24.75581 36301 ft 466 kts 295°
2026-05-06 13:08 71.75350 -24.94642 36217 ft 463 kts 296°
2026-05-06 13:08 71.77837 -25.13826 36193 ft 463 kts 296°
2026-05-06 13:09 71.80314 -25.33136 36166 ft 464 kts 296°
2026-05-06 13:09 71.82750 -25.52324 36097 ft 463 kts 296°
2026-05-06 13:10 71.85171 -25.71598 36162 ft 460 kts 295°
2026-05-06 13:10 71.87565 -25.90852 36254 ft 462 kts 295°
2026-05-06 13:11 71.89944 -26.10189 36223 ft 463 kts 295°
2026-05-06 13:11 71.92300 -26.29559 36207 ft 461 kts 295°
2026-05-06 13:12 71.94647 -26.49054 36276 ft 461 kts 295°
2026-05-06 13:12 71.96957 -26.68444 36346 ft 463 kts 294°
2026-05-06 13:13 71.99264 -26.88034 36305 ft 464 kts 294°
2026-05-06 13:13 72.01552 -27.07671 36220 ft 462 kts 294°
2026-05-06 13:14 72.03803 -27.27215 36192 ft 461 kts 294°
2026-05-06 13:14 72.06044 -27.46879 36196 ft 461 kts 294°
2026-05-06 13:15 72.08268 -27.66622 36178 ft 461 kts 293°
2026-05-06 13:15 72.10458 -27.86285 36181 ft 461 kts 293°
2026-05-06 13:16 72.12643 -28.06129 36272 ft 462 kts 293°
2026-05-06 13:16 72.14809 -28.26032 36268 ft 463 kts 293°
2026-05-06 13:17 72.16959 -28.46021 36227 ft 461 kts 293°
2026-05-06 13:17 72.19067 -28.65853 36209 ft 459 kts 292°
2026-05-06 13:18 72.21169 -28.85862 36188 ft 461 kts 292°
2026-05-06 13:18 72.23248 -29.05890 36172 ft 460 kts 292°
2026-05-06 13:19 72.25299 -29.25883 36171 ft 459 kts 292°
2026-05-06 13:19 72.27325 -29.45881 36139 ft 459 kts 292°
2026-05-06 13:20 72.29326 -29.65871 36106 ft 459 kts 291°
2026-05-06 13:20 72.31316 -29.86005 36074 ft 459 kts 291°
2026-05-06 13:21 72.33272 -30.06039 36068 ft 458 kts 291°
2026-05-06 13:21 72.35214 -30.26179 36075 ft 458 kts 291°
2026-05-06 13:22 72.37131 -30.46329 36093 ft 458 kts 291°
2026-05-06 13:22 72.39037 -30.66606 36095 ft 458 kts 290°
2026-05-06 13:23 72.40922 -30.86929 36105 ft 459 kts 290°
2026-05-06 13:23 72.42781 -31.07247 36099 ft 459 kts 290°
2026-05-06 13:24 72.44623 -31.27637 36086 ft 458 kts 290°
2026-05-06 13:24 72.46433 -31.47945 36067 ft 458 kts 291°
2026-05-06 13:25 72.48225 -31.68325 36056 ft 456 kts 290°
2026-05-06 13:25 72.49989 -31.88656 36044 ft 457 kts 290°
2026-05-06 13:26 72.51736 -32.09076 36042 ft 456 kts 290°
2026-05-06 13:26 72.53458 -32.29504 36033 ft 457 kts 290°
2026-05-06 13:27 72.55162 -32.49973 36025 ft 456 kts 290°
2026-05-06 13:27 72.56845 -32.70495 36016 ft 455 kts 289°
2026-05-06 13:28 72.58516 -32.91167 36001 ft 456 kts 289°
2026-05-06 13:28 72.60157 -33.11771 35982 ft 456 kts 289°
2026-05-06 13:29 72.61768 -33.32303 35973 ft 455 kts 289°
2026-05-06 13:29 72.63373 -33.53056 35970 ft 454 kts 289°
2026-05-06 13:30 72.64933 -33.73537 35971 ft 454 kts 288°
2026-05-06 13:30 72.66481 -33.94186 35973 ft 454 kts 288°
2026-05-06 13:31 72.68013 -34.14925 35980 ft 453 kts 288°
2026-05-06 13:31 72.69511 -34.35529 35988 ft 453 kts 288°
2026-05-06 13:32 72.70996 -34.56289 35986 ft 452 kts 288°
2026-05-06 13:32 72.72461 -34.77094 35983 ft 453 kts 287°
2026-05-06 13:33 72.73901 -34.97869 35983 ft 453 kts 287°
2026-05-06 13:33 72.75311 -35.18586 35980 ft 452 kts 287°
2026-05-06 13:34 72.76712 -35.39489 35986 ft 452 kts 287°
2026-05-06 13:34 72.78078 -35.60228 35997 ft 452 kts 287°
2026-05-06 13:35 72.79430 -35.81107 36007 ft 452 kts 286°
2026-05-06 13:35 72.80753 -36.01905 35999 ft 452 kts 286°
2026-05-06 13:36 72.82066 -36.22941 36004 ft 452 kts 286°
2026-05-06 13:36 72.83348 -36.43828 36002 ft 450 kts 286°
2026-05-06 13:37 72.84610 -36.64765 36006 ft 449 kts 286°
2026-05-06 13:37 72.85841 -36.85592 36016 ft 449 kts 285°
2026-05-06 13:38 72.87052 -37.06469 36017 ft 449 kts 285°
2026-05-06 13:38 72.88245 -37.27407 36018 ft 449 kts 285°
2026-05-06 13:39 72.89418 -37.48422 36019 ft 449 kts 285°
2026-05-06 13:39 72.90565 -37.69392 36021 ft 448 kts 284°
2026-05-06 13:40 72.91694 -37.90444 36023 ft 447 kts 284°
2026-05-06 13:40 72.92790 -38.11316 36017 ft 447 kts 284°
2026-05-06 13:41 72.93872 -38.32363 36012 ft 448 kts 284°
2026-05-06 13:41 72.94936 -38.53502 36008 ft 447 kts 284°
2026-05-06 13:42 72.95966 -38.74426 36006 ft 446 kts 283°
2026-05-06 13:42 72.96977 -38.95409 36014 ft 445 kts 283°
2026-05-06 13:43 72.97968 -39.16458 36037 ft 446 kts 283°
2026-05-06 13:43 72.98936 -39.37485 36033 ft 446 kts 283°
2026-05-06 13:44 72.99887 -39.58674 36024 ft 445 kts 283°
2026-05-06 13:44 73.00807 -39.79651 36023 ft 445 kts 282°
2026-05-06 13:45 73.01698 -40.00698 36013 ft 442 kts 285°
2026-05-06 13:45 73.03278 -40.31922 35999 ft 443 kts 283°
2026-05-06 13:46 73.04244 -40.52877 35995 ft 441 kts 284°
2026-05-06 13:46 73.05209 -40.73876 36000 ft 441 kts 283°
2026-05-06 13:47 73.06149 -40.94825 35997 ft 441 kts 283°
2026-05-06 13:47 73.07066 -41.15749 35991 ft 440 kts 283°
2026-05-06 13:48 73.07959 -41.36610 35985 ft 440 kts 283°
2026-05-06 13:48 73.08834 -41.57587 35980 ft 439 kts 283°
2026-05-06 13:49 73.09682 -41.78435 35978 ft 440 kts 282°
2026-05-06 13:49 73.10516 -41.99511 35989 ft 439 kts 282°
2026-05-06 13:50 73.11320 -42.20361 35991 ft 439 kts 282°
2026-05-06 13:50 73.12105 -42.41257 35987 ft 438 kts 282°
2026-05-06 13:51 73.12872 -42.62302 35989 ft 437 kts 282°
2026-05-06 13:51 73.13609 -42.83116 35978 ft 436 kts 281°
2026-05-06 13:52 73.14327 -43.04015 35979 ft 435 kts 281°
2026-05-06 13:52 73.15022 -43.24864 35995 ft 434 kts 281°
2026-05-06 13:53 73.15694 -43.45633 36011 ft 433 kts 282°
2026-05-06 13:53 73.16348 -43.66513 36006 ft 433 kts 281°
2026-05-06 13:54 73.16974 -43.87259 36015 ft 433 kts 281°
2026-05-06 13:54 73.17583 -44.08111 36015 ft 432 kts 281°
2026-05-06 13:55 73.18167 -44.28811 36020 ft 431 kts 281°
2026-05-06 13:55 73.18728 -44.49479 36029 ft 432 kts 281°
2026-05-06 13:56 73.19272 -44.70251 36043 ft 432 kts 280°
2026-05-06 13:56 73.19793 -44.91000 36061 ft 430 kts 280°
2026-05-06 13:57 73.20295 -45.11852 36068 ft 428 kts 280°
2026-05-06 13:57 73.20773 -45.32484 36080 ft 430 kts 280°
2026-05-06 13:58 73.21231 -45.53280 36102 ft 430 kts 280°
2026-05-06 13:58 73.21668 -45.74001 36106 ft 428 kts 279°
2026-05-06 13:59 73.22085 -45.94730 36116 ft 427 kts 279°
2026-05-06 13:59 73.22477 -46.15331 36135 ft 428 kts 279°
2026-05-06 14:00 73.22853 -46.36121 36140 ft 426 kts 279°
2026-05-06 14:00 73.23202 -46.56642 36153 ft 425 kts 279°
2026-05-06 14:01 73.23534 -46.77260 36147 ft 425 kts 278°
2026-05-06 14:01 73.23844 -46.97835 36159 ft 426 kts 279°
2026-05-06 14:02 73.24133 -47.18472 36147 ft 424 kts 278°
2026-05-06 14:02 73.24401 -47.38968 36148 ft 422 kts 279°
2026-05-06 14:03 73.24648 -47.59406 36147 ft 422 kts 278°
2026-05-06 14:03 73.24875 -47.79854 36143 ft 423 kts 277°
2026-05-06 14:04 73.25082 -48.00424 36139 ft 421 kts 277°
2026-05-06 14:04 73.25264 -48.20485 36136 ft 420 kts 278°
2026-05-06 14:05 73.25430 -48.40863 36135 ft 420 kts 277°
2026-05-06 14:05 73.25575 -48.61258 36135 ft 419 kts 277°
2026-05-06 14:06 73.25701 -48.81596 36127 ft 418 kts 277°
2026-05-06 14:06 73.25808 -49.01923 36121 ft 417 kts 276°
2026-05-06 14:07 73.25891 -49.22022 36122 ft 414 kts 277°
2026-05-06 14:07 73.25958 -49.42219 36110 ft 414 kts 276°
2026-05-06 14:08 73.26002 -49.62352 36108 ft 414 kts 277°
2026-05-06 14:08 73.26028 -49.82472 36095 ft 414 kts 276°
2026-05-06 14:09 73.26036 -50.02619 36083 ft 415 kts 276°
2026-05-06 14:09 73.26025 -50.22634 36098 ft 413 kts 276°
2026-05-06 14:10 73.25990 -50.42621 36171 ft 410 kts 276°
2026-05-06 14:10 73.25942 -50.62616 35938 ft 413 kts 275°
2026-05-06 14:11 73.25870 -50.82755 36076 ft 416 kts 275°
2026-05-06 14:11 73.25777 -51.03090 36092 ft 418 kts 275°
2026-05-06 14:12 73.25668 -51.23258 36098 ft 412 kts 275°
2026-05-06 14:12 73.25539 -51.43264 36100 ft 413 kts 274°
2026-05-06 14:13 73.25391 -51.63335 36112 ft 412 kts 274°
2026-05-06 14:13 73.25223 -51.83245 36126 ft 414 kts 273°
2026-05-06 14:14 73.25037 -52.03337 36124 ft 412 kts 274°
2026-05-06 14:14 73.24831 -52.23322 36129 ft 411 kts 273°
2026-05-06 14:15 73.24607 -52.43228 36138 ft 412 kts 273°
2026-05-06 14:15 73.24365 -52.63065 36130 ft 410 kts 273°
2026-05-06 14:16 73.24100 -52.83009 36154 ft 412 kts 272°
2026-05-06 14:16 73.23817 -53.03102 36152 ft 412 kts 272°
2026-05-06 14:17 73.23516 -53.23009 36148 ft 410 kts 272°
2026-05-06 14:17 73.23196 -53.42858 36173 ft 411 kts 272°
2026-05-06 14:18 73.22860 -53.62649 36118 ft 410 kts 272°
2026-05-06 14:18 73.22506 -53.82265 36114 ft 409 kts 271°
2026-05-06 14:19 73.22131 -54.02084 36144 ft 410 kts 271°
2026-05-06 14:19 73.21732 -54.22118 36173 ft 415 kts 271°
2026-05-06 14:20 73.21315 -54.42021 36180 ft 418 kts 271°
2026-05-06 14:20 73.20872 -54.62279 36220 ft 419 kts 271°
2026-05-06 14:21 73.20409 -54.82491 36274 ft 420 kts 269°
2026-05-06 14:21 73.19925 -55.02759 36273 ft 421 kts 270°
2026-05-06 14:22 73.19418 -55.23190 36335 ft 421 kts 269°
2026-05-06 14:22 73.18891 -55.43554 36288 ft 423 kts 269°
2026-05-06 14:23 73.18340 -55.63952 36433 ft 420 kts 269°
2026-05-06 14:23 73.18062 -55.74066 36659 ft 416 kts 268°
2026-05-06 14:23 73.17781 -55.84038 36859 ft 413 kts 268°
2026-05-06 14:24 73.17497 -55.93991 37073 ft 411 kts 268°
2026-05-06 14:24 73.17211 -56.03841 37256 ft 409 kts 268°
2026-05-06 14:24 73.16921 -56.13632 37456 ft 408 kts 268°
2026-05-06 14:24 73.16630 -56.23344 37616 ft 406 kts 268°
2026-05-06 14:25 73.16331 -56.33094 37801 ft 404 kts 268°
2026-05-06 14:25 73.16032 -56.42788 38009 ft 403 kts 267°
2026-05-06 14:25 73.15728 -56.52407 38148 ft 402 kts 267°
2026-05-06 14:25 73.15421 -56.61972 38346 ft 401 kts 268°
2026-05-06 14:26 73.14786 -56.81416 38306 ft 407 kts 267°
2026-05-06 14:26 73.14127 -57.01001 38336 ft 411 kts 266°
2026-05-06 14:27 73.13440 -57.20852 38297 ft 415 kts 266°
2026-05-06 14:27 73.12732 -57.40691 38292 ft 417 kts 266°
2026-05-06 14:28 73.11999 -57.60719 38275 ft 418 kts 266°
2026-05-06 14:28 73.11247 -57.80716 38332 ft 420 kts 265°
2026-05-06 14:29 73.10469 -58.00820 38313 ft 420 kts 265°
2026-05-06 14:29 73.09674 -58.20857 38325 ft 421 kts 265°
2026-05-06 14:30 73.08855 -58.40993 38290 ft 422 kts 265°
2026-05-06 14:30 73.08020 -58.61042 38324 ft 422 kts 265°
2026-05-06 14:31 73.07162 -58.81152 38285 ft 423 kts 264°
2026-05-06 14:31 73.06280 -59.01309 38332 ft 422 kts 264°
2026-05-06 14:32 73.05388 -59.21260 38296 ft 423 kts 264°
2026-05-06 14:32 73.04468 -59.41384 38273 ft 422 kts 264°
2026-05-06 14:33 73.03535 -59.61306 38344 ft 421 kts 264°
2026-05-06 14:33 73.02580 -59.81277 38289 ft 422 kts 263°
2026-05-06 14:34 73.01601 -60.01145 38280 ft 422 kts 264°
2026-05-06 14:34 73.01132 -60.21247 38303 ft 420 kts 267°
2026-05-06 14:35 73.00626 -60.41297 38263 ft 420 kts 267°
2026-05-06 14:35 73.00088 -60.61315 38318 ft 420 kts 267°
2026-05-06 14:36 72.99530 -60.81379 38302 ft 420 kts 266°
2026-05-06 14:36 72.98954 -61.01321 38290 ft 420 kts 266°
2026-05-06 14:37 72.98355 -61.21389 38278 ft 420 kts 265°
2026-05-06 14:37 72.97741 -61.41262 38276 ft 419 kts 265°
2026-05-06 14:38 72.97109 -61.61129 38298 ft 418 kts 265°
2026-05-06 14:38 72.96455 -61.81016 38281 ft 419 kts 264°
2026-05-06 14:39 72.95784 -62.00853 38301 ft 419 kts 264°
2026-05-06 14:39 72.95091 -62.20746 38289 ft 420 kts 264°
2026-05-06 14:40 72.94376 -62.40701 38273 ft 420 kts 264°
2026-05-06 14:40 72.93646 -62.60496 38292 ft 420 kts 264°
2026-05-06 14:41 72.92893 -62.80379 38290 ft 420 kts 263°
2026-05-06 14:41 72.92121 -63.00252 38292 ft 420 kts 263°
2026-05-06 14:42 72.91334 -63.19989 38282 ft 420 kts 263°
2026-05-06 14:42 72.90525 -63.39819 38286 ft 420 kts 263°
2026-05-06 14:43 72.89695 -63.59610 38285 ft 421 kts 263°
2026-05-06 14:43 72.88844 -63.79434 38299 ft 421 kts 262°
2026-05-06 14:44 72.87968 -63.99372 38292 ft 421 kts 262°
2026-05-06 14:45 72.86629 -64.29039 38289 ft 421 kts 262°
2026-05-06 14:45 72.85709 -64.48839 38282 ft 422 kts 262°
2026-05-06 14:46 72.84774 -64.68520 38285 ft 421 kts 261°
2026-05-06 14:46 72.83818 -64.88233 38290 ft 422 kts 261°
2026-05-06 14:47 72.82837 -65.08058 38283 ft 422 kts 261°